{"data":{"norad_id":56125,"epoch":"2026-05-25T04:23:48.585408Z","epoch_age_seconds":56468,"freshness":"FRESH","line1":"1 56125U 23046AK  26145.18320122  .00000207  00000+0  17053-4 0  9999","line2":"2 56125  43.0043  75.4377 0000794 274.7492  85.3269 15.27575384173891","mean_motion":15.27575384,"eccentricity":7.94e-5,"inclination_deg":43.0043,"raan_deg":75.4377,"arg_perigee_deg":274.7492,"mean_anomaly_deg":85.3269,"bstar":1.7053e-5,"rev_number":17389,"period_min":94.267033567229,"perigee_km":482.51813876556,"apogee_km":483.60769731255,"semimajor_km":6861.1999180391,"source":"CELESTRAK","updated_at":"2026-05-25T13:38:17.959408Z"}}